Simultaneous Nadir Overpasses (SNOs) Predictions

Prediction of SNOs between METOP-C and LANDSAT-8 Satellite Orbit:

Table of predicted SNOs for the next 14.0 days since TLE Epoch: 10/2/2021
Index Date (METOP-C) Time (METOP-C) Lat,Lon (METOP-C) SZA (METOP-C ) Date (LANDSAT-8) Time (LANDSAT-8) Lat,Lon (LANDSAT-8) SZA (LANDSAT-8 ) Distance(km) Time Diff (sec)
1 10/03/2021 21:25:35 81.07,-102.42 87.60 10/03/2021 21:26:09 81.07,-102.30 87.63 1.98 34
2 10/03/2021 22:16:14 -81.10, 65.85 92.27 10/03/2021 22:15:34 -81.11, 65.97 92.26 2.24 40
3 10/06/2021 16:59:59 81.07, -35.95 88.71 10/06/2021 17:00:25 81.07, -35.82 88.74 2.18 26
4 10/06/2021 17:50:39 -81.10, 132.02 91.20 10/06/2021 17:49:51 -81.09, 132.12 91.21 1.65 48
5 10/09/2021 12:34:23 81.07, 30.50 89.80 10/09/2021 12:34:41 81.07, 30.61 89.82 2.01 18
6 10/09/2021 13:25:02 -81.11,-161.09 90.05 10/09/2021 13:24:06 -81.12,-161.06 90.06 0.87 56
7 10/12/2021 08:08:45 81.09, 97.29 90.93 10/12/2021 08:08:55 81.09, 97.36 90.95 1.41 10
8 10/12/2021 08:59:25 -81.11, -94.62 88.96 10/12/2021 08:58:21 -81.12, -94.66 88.99 0.71 64
9 10/15/2021 02:52:51 -80.72, -11.37 89.07 10/15/2021 02:54:05 -80.54, -10.79 89.14 22.51 74
10 10/15/2021 03:43:09 81.09, 163.68 91.99 10/15/2021 03:43:11 81.09, 163.70 91.99 0.31 2



Historial Predications of SNOs between METOP-C and LANDSAT-8
